TRP532 SBGL-SYCJ

Flight info

Callsign TRP532
Flight time 4h 55m
Altitude 34000
Route EDNAM UM409 SEKPO UZ26 ILKUS UL452 TOPUR/N0453F360 UL452 REMOB
Aircraft A320/M-SDE3FGHIRWY/LB1

Departure

Time 2026-05-06 05:16
Airport Rio Galeão – Tom Jobim International Airport (SBGL)

Arrival

Time 2026-05-06 10:12
Airport Cheddi Jagan International Airport (SYCJ)
Time Latitude Longitude Altitude Speed Heading
2026-05-06 05:03 -22.81226 -43.24949 43 ft 0 kts 320°
2026-05-06 05:08 -22.81239 -43.24938 43 ft 4 kts 320°
2026-05-06 05:09 -22.81259 -43.24919 43 ft 4 kts 320°
2026-05-06 05:09 -22.81271 -43.24908 43 ft 0 kts 321°
2026-05-06 05:11 -22.81271 -43.24909 43 ft 0 kts 321°
2026-05-06 05:11 -22.81280 -43.24938 43 ft 9 kts 232°
2026-05-06 05:12 -22.81321 -43.25033 43 ft 19 kts 261°
2026-05-06 05:12 -22.81323 -43.25199 43 ft 24 kts 290°
2026-05-06 05:12 -22.81216 -43.25343 43 ft 26 kts 327°
2026-05-06 05:12 -22.81043 -43.25395 43 ft 25 kts
2026-05-06 05:13 -22.80947 -43.25455 43 ft 16 kts 297°
2026-05-06 05:13 -22.80893 -43.25571 43 ft 19 kts 297°
2026-05-06 05:13 -22.80813 -43.25692 43 ft 21 kts 338°
2026-05-06 05:13 -22.80677 -43.25621 43 ft 24 kts 35°
2026-05-06 05:14 -22.80545 -43.25538 43 ft 18 kts 345°
2026-05-06 05:14 -22.80444 -43.25606 43 ft 17 kts 324°
2026-05-06 05:14 -22.80346 -43.25597 43 ft 15 kts 40°
2026-05-06 05:14 -22.80268 -43.25526 43 ft 14 kts 38°
2026-05-06 05:15 -22.80193 -43.25468 43 ft 13 kts 36°
2026-05-06 05:15 -22.80130 -43.25289 43 ft 51 kts 74°
2026-05-06 05:15 -22.79986 -43.24728 43 ft 105 kts 75°
2026-05-06 05:15 -22.79751 -43.23806 43 ft 147 kts 74°
2026-05-06 05:16 -22.79450 -43.22639 160 ft 164 kts 76°
2026-05-06 05:16 -22.79203 -43.21462 635 ft 160 kts 78°
2026-05-06 05:16 -22.78976 -43.20262 1039 ft 164 kts 78°
2026-05-06 05:16 -22.78755 -43.19050 1475 ft 165 kts 79°
2026-05-06 05:17 -22.78511 -43.17803 1779 ft 178 kts 77°
2026-05-06 05:17 -22.78211 -43.16421 1885 ft 200 kts 76°
2026-05-06 05:17 -22.77855 -43.14841 1951 ft 231 kts 76°
2026-05-06 05:17 -22.77461 -43.13071 2249 ft 256 kts 76°
2026-05-06 05:18 -22.77042 -43.11179 3400 ft 252 kts 76°
2026-05-06 05:18 -22.76625 -43.09298 4227 ft 259 kts 76°
2026-05-06 05:18 -22.76202 -43.07388 5124 ft 263 kts 76°
2026-05-06 05:18 -22.75771 -43.05440 5977 ft 268 kts 77°
2026-05-06 05:19 -22.75333 -43.03459 6817 ft 273 kts 77°
2026-05-06 05:19 -22.74583 -43.01559 7627 ft 279 kts 55°
2026-05-06 05:19 -22.73158 -43.00124 8398 ft 286 kts 32°
2026-05-06 05:19 -22.71270 -42.99410 9142 ft 293 kts
2026-05-06 05:20 -22.69236 -42.99567 9908 ft 296 kts 345°
2026-05-06 05:20 -22.67307 -43.00370 10626 ft 303 kts 338°
2026-05-06 05:20 -22.65278 -43.01287 10742 ft 329 kts 338°
2026-05-06 05:20 -22.63112 -43.02219 11230 ft 336 kts 339°
2026-05-06 05:21 -22.60938 -43.03123 12002 ft 336 kts 339°
2026-05-06 05:21 -22.58738 -43.04022 12586 ft 340 kts 340°
2026-05-06 05:21 -22.56508 -43.04920 13216 ft 342 kts 340°
2026-05-06 05:21 -22.54263 -43.05817 13757 ft 347 kts 340°
2026-05-06 05:22 -22.51982 -43.06724 14064 ft 351 kts 340°
2026-05-06 05:22 -22.49686 -43.07633 14145 ft 350 kts 340°
2026-05-06 05:22 -22.47394 -43.08537 14167 ft 350 kts 340°
2026-05-06 05:22 -22.45110 -43.09436 14173 ft 349 kts 340°
2026-05-06 05:23 -22.42830 -43.10333 14175 ft 349 kts 340°
2026-05-06 05:23 -22.40551 -43.11229 14176 ft 349 kts 340°
2026-05-06 05:23 -22.35983 -43.13025 14177 ft 349 kts 340°
2026-05-06 05:24 -22.33697 -43.13921 14178 ft 349 kts 340°
2026-05-06 05:24 -22.31417 -43.14814 14178 ft 349 kts 340°
2026-05-06 05:24 -22.29135 -43.15708 14179 ft 349 kts 340°
2026-05-06 05:24 -22.26850 -43.16603 14180 ft 349 kts 340°
2026-05-06 05:25 -22.24569 -43.17496 14177 ft 349 kts 340°
2026-05-06 05:25 -22.22315 -43.18378 14175 ft 349 kts 340°
2026-05-06 05:25 -22.20033 -43.19271 14175 ft 349 kts 340°
2026-05-06 05:25 -22.17751 -43.20165 14175 ft 349 kts 340°
2026-05-06 05:26 -22.15474 -43.21088 14175 ft 349 kts 337°
2026-05-06 05:26 -22.13318 -43.22251 14245 ft 350 kts 330°
2026-05-06 05:26 -22.11193 -43.23570 14758 ft 351 kts 330°
2026-05-06 05:26 -22.09074 -43.24896 15301 ft 354 kts 330°
2026-05-06 05:27 -22.06934 -43.26243 15799 ft 357 kts 329°
2026-05-06 05:27 -22.04779 -43.27604 16301 ft 360 kts 329°
2026-05-06 05:27 -22.02613 -43.28976 16782 ft 363 kts 329°
2026-05-06 05:27 -22.00430 -43.30360 17258 ft 365 kts 329°
2026-05-06 05:28 -21.98226 -43.31759 17686 ft 369 kts 329°
2026-05-06 05:28 -21.96006 -43.33167 18145 ft 372 kts 329°
2026-05-06 05:28 -21.93769 -43.34587 18599 ft 374 kts 329°
2026-05-06 05:28 -21.91512 -43.36019 19009 ft 377 kts 329°
2026-05-06 05:29 -21.89250 -43.37453 19442 ft 380 kts 329°
2026-05-06 05:29 -21.86959 -43.38907 19863 ft 382 kts 329°
2026-05-06 05:29 -21.84655 -43.40368 20260 ft 385 kts 329°
2026-05-06 05:29 -21.82340 -43.41836 20664 ft 388 kts 328°
2026-05-06 05:30 -21.80002 -43.43305 21057 ft 390 kts 329°
2026-05-06 05:30 -21.77649 -43.44774 21417 ft 393 kts 329°
2026-05-06 05:30 -21.75277 -43.46255 21795 ft 395 kts 329°
2026-05-06 05:30 -21.72894 -43.47743 22145 ft 397 kts 328°
2026-05-06 05:31 -21.70491 -43.49243 22487 ft 400 kts 328°
2026-05-06 05:31 -21.68077 -43.50750 22832 ft 402 kts 328°
2026-05-06 05:31 -21.65650 -43.52266 23145 ft 404 kts 328°
2026-05-06 05:31 -21.63208 -43.53789 23463 ft 406 kts 328°
2026-05-06 05:32 -21.60760 -43.55317 23773 ft 408 kts 328°
2026-05-06 05:32 -21.58298 -43.56853 24053 ft 411 kts 328°
2026-05-06 05:32 -21.55819 -43.58396 24365 ft 412 kts 328°
2026-05-06 05:32 -21.53330 -43.59938 24677 ft 413 kts 328°
2026-05-06 05:33 -21.50834 -43.61484 24944 ft 415 kts 328°
2026-05-06 05:33 -21.48325 -43.63037 25232 ft 417 kts 328°
2026-05-06 05:33 -21.45813 -43.64594 25524 ft 418 kts 328°
2026-05-06 05:33 -21.43288 -43.66158 25798 ft 419 kts 328°
2026-05-06 05:34 -21.40789 -43.67705 26064 ft 420 kts 328°
2026-05-06 05:34 -21.38251 -43.69275 26314 ft 422 kts 328°
2026-05-06 05:34 -21.35699 -43.70855 26589 ft 423 kts 328°
2026-05-06 05:34 -21.33149 -43.72433 26842 ft 424 kts 328°
2026-05-06 05:35 -21.30597 -43.74011 27187 ft 423 kts 328°
2026-05-06 05:35 -21.28038 -43.75592 27412 ft 425 kts 328°
2026-05-06 05:35 -21.25486 -43.77209 27647 ft 426 kts 326°
2026-05-06 05:35 -21.22952 -43.78858 27896 ft 426 kts 326°
2026-05-06 05:36 -21.20408 -43.80515 28100 ft 428 kts 326°
2026-05-06 05:36 -21.17857 -43.82178 28342 ft 429 kts 326°
2026-05-06 05:36 -21.15308 -43.83840 28577 ft 430 kts 326°
2026-05-06 05:36 -21.13613 -43.84945 28719 ft 431 kts 326°
2026-05-06 05:37 -21.11048 -43.86616 28934 ft 432 kts 326°
2026-05-06 05:37 -21.08468 -43.88296 29150 ft 434 kts 326°
2026-05-06 05:37 -21.05051 -43.90521 29441 ft 435 kts 326°
2026-05-06 05:37 -21.02463 -43.92206 29642 ft 436 kts 326°
2026-05-06 05:38 -20.99868 -43.93893 29838 ft 437 kts 326°
2026-05-06 05:38 -20.97265 -43.95587 30047 ft 438 kts 326°
2026-05-06 05:38 -20.95501 -43.96734 30182 ft 439 kts 326°
2026-05-06 05:38 -20.92889 -43.98432 30330 ft 441 kts 326°
2026-05-06 05:39 -20.90261 -44.00139 30524 ft 442 kts 326°
2026-05-06 05:39 -20.87633 -44.01846 30658 ft 445 kts 326°
2026-05-06 05:39 -20.84979 -44.03569 30796 ft 447 kts 326°
2026-05-06 05:39 -20.82319 -44.05295 31009 ft 447 kts 326°
2026-05-06 05:40 -20.79650 -44.07027 31146 ft 450 kts 326°
2026-05-06 05:40 -20.76969 -44.08768 31335 ft 451 kts 325°
2026-05-06 05:40 -20.74330 -44.10489 31510 ft 452 kts 325°
2026-05-06 05:40 -20.71640 -44.12244 31657 ft 454 kts 325°
2026-05-06 05:41 -20.68935 -44.14005 31843 ft 455 kts 325°
2026-05-06 05:41 -20.66224 -44.15771 32020 ft 456 kts 325°
2026-05-06 05:41 -20.63507 -44.17537 32167 ft 459 kts 325°
2026-05-06 05:41 -20.60768 -44.19299 32349 ft 460 kts 325°
2026-05-06 05:42 -20.58024 -44.21062 32520 ft 461 kts 325°
2026-05-06 05:42 -20.55268 -44.22832 32680 ft 463 kts 325°
2026-05-06 05:42 -20.52503 -44.24607 32829 ft 465 kts 325°
2026-05-06 05:42 -20.49730 -44.26388 33012 ft 465 kts 325°
2026-05-06 05:43 -20.46957 -44.28167 33261 ft 464 kts 325°
2026-05-06 05:43 -20.44195 -44.29939 33468 ft 464 kts 324°
2026-05-06 05:43 -20.41424 -44.31721 33664 ft 464 kts 324°
2026-05-06 05:43 -20.38691 -44.33478 33869 ft 464 kts 324°
2026-05-06 05:44 -20.35929 -44.35253 34108 ft 463 kts 324°
2026-05-06 05:44 -20.33166 -44.37029 34254 ft 465 kts 324°
2026-05-06 05:44 -20.27582 -44.40619 34303 ft 464 kts 324°
2026-05-06 05:45 -20.22089 -44.44147 34307 ft 464 kts 324°
2026-05-06 05:45 -20.16554 -44.47701 34308 ft 465 kts 324°
2026-05-06 05:46 -20.11014 -44.51254 34308 ft 465 kts 324°
2026-05-06 05:46 -20.05470 -44.54804 34308 ft 465 kts 324°
2026-05-06 05:47 -19.99915 -44.58360 34308 ft 465 kts 324°
2026-05-06 05:47 -19.94365 -44.61909 34308 ft 467 kts 324°
2026-05-06 05:48 -19.88798 -44.65470 34307 ft 466 kts 324°
2026-05-06 05:48 -19.83226 -44.69031 34305 ft 467 kts 324°
2026-05-06 05:49 -19.77657 -44.72588 34301 ft 467 kts 324°
2026-05-06 05:49 -19.72080 -44.76148 34300 ft 468 kts 324°
2026-05-06 05:50 -19.66536 -44.79685 34300 ft 469 kts 324°
2026-05-06 05:50 -19.60937 -44.83253 34289 ft 469 kts 324°
2026-05-06 05:51 -19.55349 -44.86813 34278 ft 469 kts 324°
2026-05-06 05:51 -19.49754 -44.90363 34269 ft 467 kts 324°
2026-05-06 05:52 -19.44173 -44.93893 34281 ft 467 kts 324°
2026-05-06 05:52 -19.38610 -44.97417 34282 ft 466 kts 323°
2026-05-06 05:53 -19.33061 -45.00932 34275 ft 464 kts 323°
2026-05-06 05:53 -19.27523 -45.04445 34282 ft 463 kts 323°
2026-05-06 05:54 -19.21993 -45.07949 34280 ft 464 kts 323°
2026-05-06 05:54 -19.16437 -45.11459 34276 ft 465 kts 323°
2026-05-06 05:55 -19.10886 -45.14968 34282 ft 466 kts 323°
2026-05-06 05:55 -19.05315 -45.18493 34267 ft 466 kts 323°
2026-05-06 05:56 -18.99786 -45.21986 34278 ft 466 kts 323°
2026-05-06 05:56 -18.94225 -45.25501 34274 ft 466 kts 323°
2026-05-06 05:57 -18.88652 -45.29014 34277 ft 467 kts 323°
2026-05-06 05:57 -18.83076 -45.32527 34279 ft 467 kts 323°
2026-05-06 05:58 -18.77485 -45.36047 34274 ft 468 kts 323°
2026-05-06 05:58 -18.71881 -45.39572 34276 ft 470 kts 323°
2026-05-06 05:59 -18.66259 -45.43108 34273 ft 472 kts 323°
2026-05-06 05:59 -18.60614 -45.46652 34275 ft 474 kts 323°
2026-05-06 06:00 -18.54932 -45.50223 34274 ft 476 kts 322°
2026-05-06 06:00 -18.49240 -45.53785 34272 ft 475 kts 322°
2026-05-06 06:01 -18.43559 -45.57398 34272 ft 478 kts 319°
2026-05-06 06:01 -18.38185 -45.61510 34273 ft 477 kts 316°
2026-05-06 06:02 -18.32858 -45.65669 34272 ft 478 kts 316°
2026-05-06 06:02 -18.27506 -45.69848 34272 ft 479 kts 316°
2026-05-06 06:03 -18.22146 -45.74031 34271 ft 479 kts 316°
2026-05-06 06:03 -18.16820 -45.78185 34270 ft 481 kts 316°
2026-05-06 06:04 -18.11438 -45.82381 34271 ft 481 kts 316°
2026-05-06 06:04 -18.06060 -45.86569 34268 ft 481 kts 316°
2026-05-06 06:05 -18.00685 -45.90755 34268 ft 481 kts 316°
2026-05-06 06:05 -17.95301 -45.94943 34268 ft 481 kts 316°
2026-05-06 06:06 -17.89917 -45.99128 34265 ft 481 kts 316°
2026-05-06 06:06 -17.84534 -46.03307 34262 ft 481 kts 316°
2026-05-06 06:07 -17.79125 -46.07489 34261 ft 481 kts 316°
2026-05-06 06:07 -17.73770 -46.11629 34261 ft 482 kts 316°
2026-05-06 06:08 -17.68371 -46.15801 34261 ft 482 kts 316°
2026-05-06 06:08 -17.62976 -46.19972 34261 ft 481 kts 316°
2026-05-06 06:09 -17.57587 -46.24137 34258 ft 481 kts 316°
2026-05-06 06:09 -17.52200 -46.28297 34262 ft 481 kts 316°
2026-05-06 06:10 -17.46804 -46.32462 34259 ft 481 kts 316°
2026-05-06 06:10 -17.41408 -46.36626 34259 ft 481 kts 316°
2026-05-06 06:11 -17.36017 -46.40785 34261 ft 481 kts 316°
2026-05-06 06:11 -17.30655 -46.44918 34257 ft 481 kts 316°
2026-05-06 06:12 -17.25263 -46.49070 34259 ft 481 kts 316°
2026-05-06 06:12 -17.19867 -46.53224 34252 ft 481 kts 316°
2026-05-06 06:13 -17.14473 -46.57372 34253 ft 481 kts 316°
2026-05-06 06:13 -17.09304 -46.61758 34251 ft 477 kts 312°
2026-05-06 06:14 -17.04251 -46.66254 34252 ft 477 kts 312°
2026-05-06 06:14 -16.99196 -46.70754 34253 ft 477 kts 312°
2026-05-06 06:15 -16.94147 -46.75248 34253 ft 477 kts 312°
2026-05-06 06:15 -16.89093 -46.79744 34254 ft 477 kts 312°
2026-05-06 06:16 -16.84045 -46.84234 34254 ft 477 kts 312°
2026-05-06 06:16 -16.78997 -46.88720 34254 ft 477 kts 312°
2026-05-06 06:17 -16.73944 -46.93208 34255 ft 477 kts 312°
2026-05-06 06:17 -16.68924 -46.97664 34254 ft 477 kts 312°
2026-05-06 06:18 -16.63869 -47.02149 34259 ft 477 kts 312°
2026-05-06 06:18 -16.58817 -47.06627 34246 ft 476 kts 312°
2026-05-06 06:19 -16.53783 -47.11085 34243 ft 474 kts 312°
2026-05-06 06:19 -16.48749 -47.15542 34243 ft 474 kts 312°
2026-05-06 06:20 -16.43723 -47.19989 34244 ft 475 kts 312°
2026-05-06 06:20 -16.38708 -47.24462 34244 ft 472 kts 309°
2026-05-06 06:21 -16.34063 -47.29252 34245 ft 469 kts 307°
2026-05-06 06:21 -16.29487 -47.34052 34246 ft 469 kts 307°
2026-05-06 06:22 -16.24888 -47.38877 34247 ft 469 kts 307°
2026-05-06 06:22 -16.20294 -47.43694 34256 ft 469 kts 307°
2026-05-06 06:23 -16.16470 -47.47704 34264 ft 469 kts 307°
2026-05-06 06:23 -16.11876 -47.52518 34264 ft 469 kts 307°
2026-05-06 06:24 -16.07274 -47.57338 34263 ft 469 kts 308°
2026-05-06 06:24 -16.02677 -47.62149 34262 ft 469 kts 308°
2026-05-06 06:25 -15.98080 -47.66958 34261 ft 469 kts 308°
2026-05-06 06:26 -15.91214 -47.74134 34260 ft 469 kts 308°
2026-05-06 06:26 -15.86610 -47.78942 34259 ft 469 kts 308°
2026-05-06 06:27 -15.82035 -47.83704 34258 ft 469 kts 308°
2026-05-06 06:27 -15.77425 -47.88492 34258 ft 469 kts 308°
2026-05-06 06:28 -15.72814 -47.93282 34259 ft 469 kts 308°
2026-05-06 06:28 -15.68206 -47.98069 34259 ft 469 kts 308°
2026-05-06 06:29 -15.63595 -48.02860 34260 ft 469 kts 308°
2026-05-06 06:29 -15.58988 -48.07646 34262 ft 468 kts 308°
2026-05-06 06:30 -15.54390 -48.12420 34263 ft 467 kts 308°
2026-05-06 06:30 -15.49276 -48.16646 34261 ft 484 kts 329°
2026-05-06 06:30 -15.46056 -48.17752 34264 ft 495 kts 345°
2026-05-06 06:31 -15.42600 -48.18111 34274 ft 499 kts 353°
2026-05-06 06:31 -15.35705 -48.18405 34267 ft 498 kts 355°
2026-05-06 06:32 -15.28767 -48.18656 34268 ft 498 kts 355°
2026-05-06 06:32 -15.21849 -48.18896 34268 ft 497 kts 355°
2026-05-06 06:33 -15.14947 -48.19131 34268 ft 497 kts 355°
2026-05-06 06:33 -15.08039 -48.19361 34268 ft 496 kts 355°
2026-05-06 06:34 -15.01150 -48.19587 34268 ft 495 kts 355°
2026-05-06 06:34 -14.94305 -48.20087 34264 ft 490 kts 345°
2026-05-06 06:34 -14.91050 -48.21059 34265 ft 483 kts 334°
2026-05-06 06:35 -14.88042 -48.22529 34271 ft 478 kts 328°
2026-05-06 06:35 -14.82162 -48.25653 34266 ft 477 kts 327°
2026-05-06 06:36 -14.76312 -48.28907 34265 ft 477 kts 326°
2026-05-06 06:36 -14.70475 -48.32173 34264 ft 476 kts 326°
2026-05-06 06:37 -14.64650 -48.35436 34264 ft 476 kts 326°
2026-05-06 06:37 -14.58826 -48.38700 34264 ft 476 kts 326°
2026-05-06 06:38 -14.52999 -48.41966 34263 ft 476 kts 327°
2026-05-06 06:38 -14.47178 -48.45227 34262 ft 476 kts 327°
2026-05-06 06:39 -14.41352 -48.48490 34260 ft 476 kts 327°
2026-05-06 06:39 -14.35529 -48.51750 34259 ft 476 kts 327°
2026-05-06 06:40 -14.29706 -48.55008 34257 ft 476 kts 327°
2026-05-06 06:40 -14.23895 -48.58258 34255 ft 475 kts 327°
2026-05-06 06:41 -14.18075 -48.61511 34253 ft 475 kts 327°
2026-05-06 06:41 -14.12262 -48.64757 34250 ft 475 kts 327°
2026-05-06 06:42 -14.06451 -48.68001 34248 ft 475 kts 327°
2026-05-06 06:42 -14.00681 -48.71220 34245 ft 474 kts 327°
2026-05-06 06:43 -13.94887 -48.74452 34243 ft 473 kts 327°
2026-05-06 06:43 -13.89108 -48.77671 34240 ft 472 kts 327°
2026-05-06 06:44 -13.83337 -48.80884 34237 ft 471 kts 327°
2026-05-06 06:44 -13.77561 -48.84099 34233 ft 472 kts 327°
2026-05-06 06:45 -13.71791 -48.87308 34230 ft 470 kts 327°
2026-05-06 06:45 -13.66036 -48.90507 34227 ft 471 kts 327°
2026-05-06 06:46 -13.60279 -48.93705 34223 ft 470 kts 327°
2026-05-06 06:46 -13.54528 -48.96898 34220 ft 469 kts 327°
2026-05-06 06:47 -13.48812 -49.00071 34173 ft 469 kts 327°
2026-05-06 06:47 -13.43036 -49.03274 34162 ft 469 kts 327°
2026-05-06 06:48 -13.37296 -49.06456 34159 ft 468 kts 327°
2026-05-06 06:48 -13.31562 -49.09633 34155 ft 468 kts 327°
2026-05-06 06:49 -13.25866 -49.12786 34152 ft 468 kts 327°
2026-05-06 06:49 -13.20130 -49.15960 34149 ft 468 kts 328°
2026-05-06 06:50 -13.14397 -49.19131 34145 ft 468 kts 328°
2026-05-06 06:50 -13.08661 -49.22302 34142 ft 467 kts 328°
2026-05-06 06:51 -13.02934 -49.25466 34121 ft 467 kts 328°
2026-05-06 06:51 -12.97213 -49.28625 34117 ft 467 kts 328°
2026-05-06 06:52 -12.91484 -49.31787 34113 ft 467 kts 328°
2026-05-06 06:52 -12.85768 -49.34940 34110 ft 466 kts 328°
2026-05-06 06:53 -12.80042 -49.38079 34107 ft 467 kts 328°
2026-05-06 06:53 -12.74316 -49.41219 34105 ft 466 kts 328°
2026-05-06 06:54 -12.68632 -49.44340 34102 ft 467 kts 328°
2026-05-06 06:54 -12.62906 -49.47487 34099 ft 466 kts 328°
2026-05-06 06:55 -12.57198 -49.50624 34097 ft 466 kts 328°
2026-05-06 06:55 -12.51487 -49.53763 34094 ft 465 kts 328°
2026-05-06 06:56 -12.45780 -49.56899 34092 ft 465 kts 328°
2026-05-06 06:56 -12.40076 -49.60032 34089 ft 465 kts 328°
2026-05-06 06:57 -12.34385 -49.63156 34087 ft 465 kts 328°
2026-05-06 06:57 -12.28684 -49.66285 34085 ft 465 kts 328°
2026-05-06 06:58 -12.22992 -49.69409 34083 ft 464 kts 328°
2026-05-06 06:58 -12.17302 -49.72528 34081 ft 464 kts 328°
2026-05-06 06:59 -12.11616 -49.75644 34084 ft 464 kts 328°
2026-05-06 06:59 -12.05931 -49.78759 34087 ft 463 kts 329°
2026-05-06 07:00 -12.00242 -49.81874 34085 ft 463 kts 329°
2026-05-06 07:00 -11.94599 -49.84962 34083 ft 463 kts 329°
2026-05-06 07:01 -11.88910 -49.88073 34081 ft 463 kts 329°
2026-05-06 07:01 -11.83224 -49.91181 34080 ft 463 kts 329°
2026-05-06 07:02 -11.77537 -49.94289 34078 ft 463 kts 329°
2026-05-06 07:02 -11.71846 -49.97397 34077 ft 463 kts 329°
2026-05-06 07:03 -11.66194 -50.00482 34075 ft 464 kts 329°
2026-05-06 07:03 -11.60510 -50.03584 34065 ft 463 kts 329°
2026-05-06 07:04 -11.54831 -50.06681 34063 ft 463 kts 329°
2026-05-06 07:04 -11.49146 -50.09780 34062 ft 463 kts 329°
2026-05-06 07:05 -11.43472 -50.12871 34061 ft 463 kts 329°
2026-05-06 07:05 -11.37791 -50.15965 34060 ft 462 kts 329°
2026-05-06 07:06 -11.32115 -50.19054 34059 ft 462 kts 329°
2026-05-06 07:06 -11.26438 -50.22143 34058 ft 462 kts 329°
2026-05-06 07:07 -11.20773 -50.25224 34057 ft 462 kts 329°
2026-05-06 07:07 -11.15094 -50.28311 34056 ft 462 kts 329°
2026-05-06 07:08 -11.09424 -50.31391 34056 ft 462 kts 329°
2026-05-06 07:08 -11.03795 -50.34437 34055 ft 461 kts 330°
2026-05-06 07:09 -10.98107 -50.37503 34054 ft 462 kts 330°
2026-05-06 07:09 -10.92431 -50.40565 34054 ft 461 kts 330°
2026-05-06 07:10 -10.86755 -50.43628 34053 ft 462 kts 330°
2026-05-06 07:10 -10.81087 -50.46687 34052 ft 461 kts 330°
2026-05-06 07:11 -10.75420 -50.49745 34052 ft 461 kts 330°
2026-05-06 07:11 -10.70705 -50.52289 34052 ft 461 kts 330°
2026-05-06 07:12 -10.65035 -50.55349 34051 ft 461 kts 330°
2026-05-06 07:12 -10.59369 -50.58405 34051 ft 461 kts 330°
2026-05-06 07:13 -10.53707 -50.61458 34051 ft 461 kts 330°
2026-05-06 07:13 -10.48039 -50.64515 34050 ft 461 kts 330°
2026-05-06 07:14 -10.42346 -50.67519 34050 ft 461 kts 331°
2026-05-06 07:14 -10.36625 -50.70474 34050 ft 461 kts 331°
2026-05-06 07:15 -10.30908 -50.73427 34049 ft 461 kts 331°
2026-05-06 07:15 -10.25195 -50.76380 34037 ft 461 kts 331°
2026-05-06 07:16 -10.19485 -50.79330 34032 ft 460 kts 331°
2026-05-06 07:16 -10.13768 -50.82283 34032 ft 460 kts 331°
2026-05-06 07:17 -10.08099 -50.85211 34032 ft 460 kts 331°
2026-05-06 07:17 -10.02389 -50.88160 34033 ft 460 kts 332°
2026-05-06 07:18 -9.96689 -50.91104 34033 ft 459 kts 332°
2026-05-06 07:18 -9.91004 -50.94039 34033 ft 458 kts 332°
2026-05-06 07:19 -9.85322 -50.96970 34022 ft 458 kts 332°
2026-05-06 07:19 -9.79645 -50.99897 34021 ft 457 kts 332°
2026-05-06 07:20 -9.73973 -51.02821 34021 ft 457 kts 332°
2026-05-06 07:20 -9.68303 -51.05743 34020 ft 457 kts 332°
2026-05-06 07:21 -9.62633 -51.08663 34021 ft 457 kts 332°
2026-05-06 07:21 -9.56963 -51.11583 34021 ft 457 kts 332°
2026-05-06 07:22 -9.51300 -51.14497 34021 ft 457 kts 332°
2026-05-06 07:22 -9.45639 -51.17410 34022 ft 456 kts 332°
2026-05-06 07:23 -9.39980 -51.20320 34022 ft 456 kts 332°
2026-05-06 07:23 -9.34322 -51.23229 34022 ft 456 kts 332°
2026-05-06 07:24 -9.28662 -51.26138 34022 ft 456 kts 332°
2026-05-06 07:24 -9.23043 -51.29024 34022 ft 455 kts 332°
2026-05-06 07:25 -9.17396 -51.31924 34023 ft 455 kts 332°
2026-05-06 07:25 -9.11743 -51.34825 34023 ft 455 kts 332°
2026-05-06 07:26 -9.06089 -51.37726 34023 ft 455 kts 332°
2026-05-06 07:26 -9.00438 -51.40625 34023 ft 455 kts 332°
2026-05-06 07:27 -8.94789 -51.43522 34024 ft 455 kts 332°
2026-05-06 07:27 -8.89139 -51.46418 34024 ft 455 kts 332°
2026-05-06 07:28 -8.83498 -51.49309 34024 ft 454 kts 333°
2026-05-06 07:28 -8.75034 -51.53643 34025 ft 455 kts 333°
2026-05-06 07:29 -8.69393 -51.56531 34025 ft 454 kts 333°
2026-05-06 07:29 -8.63791 -51.59398 34025 ft 454 kts 333°
2026-05-06 07:30 -8.58151 -51.62283 34025 ft 454 kts 333°
2026-05-06 07:30 -8.52517 -51.65165 34026 ft 454 kts 333°
2026-05-06 07:31 -8.46888 -51.68042 34026 ft 454 kts 333°
2026-05-06 07:31 -8.41243 -51.70927 34026 ft 454 kts 333°
2026-05-06 07:32 -8.35610 -51.73805 34026 ft 453 kts 333°
2026-05-06 07:32 -8.29979 -51.76680 34027 ft 453 kts 333°
2026-05-06 07:33 -8.24349 -51.79555 34027 ft 453 kts 333°
2026-05-06 07:33 -8.18753 -51.82412 34027 ft 453 kts 333°
2026-05-06 07:34 -8.13128 -51.85280 34027 ft 453 kts 334°
2026-05-06 07:34 -8.07414 -51.87975 34027 ft 453 kts 335°
2026-05-06 07:35 -8.01694 -51.90633 34028 ft 453 kts 335°
2026-05-06 07:35 -7.95961 -51.93299 34028 ft 453 kts 335°
2026-05-06 07:36 -7.90238 -51.95962 34028 ft 453 kts 335°
2026-05-06 07:36 -7.84513 -51.98628 34028 ft 453 kts 335°
2026-05-06 07:37 -7.78792 -52.01291 34028 ft 453 kts 335°
2026-05-06 07:37 -7.73108 -52.03938 34028 ft 453 kts 335°
2026-05-06 07:38 -7.67387 -52.06602 34028 ft 453 kts 335°
2026-05-06 07:38 -7.61662 -52.09268 34028 ft 453 kts 335°
2026-05-06 07:39 -7.55938 -52.11934 34028 ft 453 kts 335°
2026-05-06 07:39 -7.50211 -52.14600 34028 ft 454 kts 335°
2026-05-06 07:40 -7.44470 -52.17274 34027 ft 454 kts 335°
2026-05-06 07:40 -7.38743 -52.19940 34027 ft 454 kts 335°
2026-05-06 07:41 -7.33006 -52.22609 34027 ft 454 kts 335°
2026-05-06 07:41 -7.27271 -52.25278 34027 ft 454 kts 335°
2026-05-06 07:42 -7.21532 -52.27947 34027 ft 455 kts 335°
2026-05-06 07:42 -7.15777 -52.30624 34026 ft 455 kts 335°
2026-05-06 07:43 -7.10032 -52.33294 34026 ft 455 kts 335°
2026-05-06 07:43 -7.04277 -52.35969 34026 ft 455 kts 335°
2026-05-06 07:44 -6.98557 -52.38627 34025 ft 455 kts 335°
2026-05-06 07:44 -6.92799 -52.41302 34025 ft 456 kts 335°
2026-05-06 07:45 -6.87036 -52.43978 34024 ft 456 kts 335°
2026-05-06 07:45 -6.81271 -52.46654 34023 ft 456 kts 335°
2026-05-06 07:46 -6.75502 -52.49332 34023 ft 456 kts 335°
2026-05-06 07:46 -6.69737 -52.52007 34022 ft 456 kts 335°
2026-05-06 07:47 -6.63973 -52.54681 34021 ft 456 kts 335°
2026-05-06 07:47 -6.58194 -52.57361 34020 ft 457 kts 335°
2026-05-06 07:48 -6.52452 -52.60022 34019 ft 457 kts 335°
2026-05-06 07:48 -6.46672 -52.62702 34018 ft 457 kts 335°
2026-05-06 07:49 -6.40895 -52.65378 34017 ft 457 kts 335°
2026-05-06 07:49 -6.35116 -52.68055 34016 ft 457 kts 335°
2026-05-06 07:50 -6.29339 -52.70726 34015 ft 457 kts 335°
2026-05-06 07:50 -6.23554 -52.73399 34013 ft 457 kts 335°
2026-05-06 07:51 -6.17782 -52.76066 34012 ft 457 kts 335°
2026-05-06 07:51 -6.12000 -52.78739 34011 ft 457 kts 335°
2026-05-06 07:52 -6.06224 -52.81409 33999 ft 457 kts 335°
2026-05-06 07:52 -6.00441 -52.84082 33997 ft 457 kts 335°
2026-05-06 07:53 -5.94657 -52.86757 33995 ft 458 kts 335°
2026-05-06 07:53 -5.88868 -52.89433 33994 ft 458 kts 335°
2026-05-06 07:54 -5.83078 -52.92109 33993 ft 458 kts 335°
2026-05-06 07:54 -5.77290 -52.94784 33991 ft 458 kts 335°
2026-05-06 07:55 -5.71538 -52.97441 33990 ft 458 kts 335°
2026-05-06 07:55 -5.65756 -53.00113 33989 ft 458 kts 335°
2026-05-06 07:56 -5.59959 -53.02790 33987 ft 458 kts 335°
2026-05-06 07:56 -5.54174 -53.05462 33986 ft 458 kts 335°
2026-05-06 07:57 -5.48386 -53.08134 33984 ft 458 kts 335°
2026-05-06 07:57 -5.42594 -53.10808 33983 ft 458 kts 335°
2026-05-06 07:58 -5.37785 -53.13028 33981 ft 458 kts 335°
2026-05-06 07:58 -5.32002 -53.15696 33981 ft 458 kts 335°
2026-05-06 07:59 -5.26213 -53.18367 33980 ft 458 kts 335°
2026-05-06 07:59 -5.20431 -53.21034 33978 ft 458 kts 335°
2026-05-06 08:00 -5.14644 -53.23704 33977 ft 458 kts 335°
2026-05-06 08:00 -5.08856 -53.26372 33975 ft 457 kts 335°
2026-05-06 08:01 -5.03072 -53.29039 33973 ft 457 kts 335°
2026-05-06 08:01 -4.97286 -53.31706 33971 ft 457 kts 335°
2026-05-06 08:02 -4.91507 -53.34368 33969 ft 457 kts 335°
2026-05-06 08:02 -4.85726 -53.37032 33968 ft 457 kts 336°
2026-05-06 08:03 -4.79933 -53.39696 33966 ft 457 kts 336°
2026-05-06 08:03 -4.74189 -53.42335 33964 ft 457 kts 336°
2026-05-06 08:04 -4.68402 -53.44995 33963 ft 457 kts 336°
2026-05-06 08:04 -4.62628 -53.47650 33986 ft 456 kts 336°
2026-05-06 08:05 -4.56841 -53.50311 34006 ft 458 kts 336°
2026-05-06 08:05 -4.51056 -53.52971 34006 ft 457 kts 336°
2026-05-06 08:06 -4.45271 -53.55631 34005 ft 457 kts 336°
2026-05-06 08:06 -4.39485 -53.58292 34004 ft 457 kts 336°
2026-05-06 08:07 -4.33704 -53.60950 34004 ft 457 kts 336°
2026-05-06 08:07 -4.27926 -53.63604 34003 ft 457 kts 336°
2026-05-06 08:08 -4.22148 -53.66258 33986 ft 457 kts 336°
2026-05-06 08:08 -4.16367 -53.68914 33970 ft 457 kts 336°
2026-05-06 08:09 -4.10573 -53.71575 33969 ft 457 kts 336°
2026-05-06 08:09 -4.04791 -53.74230 33969 ft 457 kts 336°
2026-05-06 08:10 -3.99007 -53.76887 33969 ft 457 kts 336°
2026-05-06 08:10 -3.93218 -53.79545 33969 ft 457 kts 336°
2026-05-06 08:11 -3.87436 -53.82200 33969 ft 457 kts 336°
2026-05-06 08:11 -3.81646 -53.84858 33970 ft 457 kts 336°
2026-05-06 08:12 -3.75903 -53.87495 33970 ft 457 kts 336°
2026-05-06 08:12 -3.70114 -53.90152 33971 ft 457 kts 336°
2026-05-06 08:13 -3.64328 -53.92808 33971 ft 457 kts 336°
2026-05-06 08:13 -3.58547 -53.95460 33972 ft 457 kts 336°
2026-05-06 08:14 -3.52757 -53.98117 33973 ft 457 kts 336°
2026-05-06 08:14 -3.46974 -54.00770 33974 ft 457 kts 336°
2026-05-06 08:15 -3.41191 -54.03423 33975 ft 457 kts 336°
2026-05-06 08:15 -3.35440 -54.06060 33976 ft 457 kts 336°
2026-05-06 08:16 -3.29655 -54.08713 33977 ft 457 kts 336°
2026-05-06 08:16 -3.23879 -54.11360 33978 ft 457 kts 336°
2026-05-06 08:17 -3.18091 -54.14009 33980 ft 457 kts 336°
2026-05-06 08:17 -3.12304 -54.16660 33981 ft 458 kts 336°
2026-05-06 08:18 -3.06513 -54.19312 33982 ft 458 kts 336°
2026-05-06 08:18 -3.00723 -54.21963 33983 ft 458 kts 336°
2026-05-06 08:19 -2.94933 -54.24615 33985 ft 458 kts 336°
2026-05-06 08:19 -2.89143 -54.27266 33986 ft 458 kts 336°
2026-05-06 08:20 -2.83345 -54.29921 33987 ft 458 kts 336°
2026-05-06 08:20 -2.77551 -54.32574 33988 ft 458 kts 336°
2026-05-06 08:21 -2.71763 -54.35225 33989 ft 458 kts 336°
2026-05-06 08:21 -2.65973 -54.37875 33990 ft 458 kts 336°
2026-05-06 08:22 -2.60210 -54.40514 33990 ft 458 kts 336°
2026-05-06 08:22 -2.54418 -54.43165 33991 ft 458 kts 336°
2026-05-06 08:23 -2.48626 -54.45816 33991 ft 458 kts 336°
2026-05-06 08:23 -2.42835 -54.48467 33992 ft 458 kts 336°
2026-05-06 08:24 -2.37039 -54.51120 33993 ft 458 kts 336°
2026-05-06 08:24 -2.31242 -54.53772 33993 ft 458 kts 336°
2026-05-06 08:25 -2.25446 -54.56423 33993 ft 458 kts 336°
2026-05-06 08:25 -2.19654 -54.59072 33993 ft 458 kts 336°
2026-05-06 08:26 -2.13863 -54.61720 33993 ft 458 kts 336°
2026-05-06 08:26 -2.08105 -54.64354 33993 ft 458 kts 336°
2026-05-06 08:27 -2.02318 -54.67001 33993 ft 458 kts 336°
2026-05-06 08:27 -1.96526 -54.69651 33993 ft 458 kts 336°
2026-05-06 08:28 -1.90718 -54.72308 33992 ft 459 kts 336°
2026-05-06 08:28 -1.84913 -54.74962 33989 ft 459 kts 336°
2026-05-06 08:29 -1.79110 -54.77616 33988 ft 459 kts 336°
2026-05-06 08:29 -1.73305 -54.80270 33988 ft 459 kts 336°
2026-05-06 08:30 -1.67497 -54.82926 33987 ft 459 kts 336°
2026-05-06 08:30 -1.61687 -54.85582 33986 ft 459 kts 336°
2026-05-06 08:31 -1.55867 -54.88243 33985 ft 459 kts 336°
2026-05-06 08:31 -1.50063 -54.90896 33984 ft 459 kts 336°
2026-05-06 08:32 -1.44285 -54.93538 33983 ft 460 kts 336°
2026-05-06 08:32 -1.38455 -54.96202 33983 ft 460 kts 336°
2026-05-06 08:33 -1.32631 -54.98864 33982 ft 460 kts 336°
2026-05-06 08:33 -1.26840 -55.01510 33981 ft 460 kts 336°
2026-05-06 08:34 -1.18102 -55.05505 33980 ft 461 kts 336°
2026-05-06 08:35 -1.12265 -55.08171 33979 ft 460 kts 336°
2026-05-06 08:35 -1.06441 -55.10833 33979 ft 461 kts 336°
2026-05-06 08:36 -1.00611 -55.13497 33978 ft 461 kts 336°
2026-05-06 08:36 -0.94778 -55.16162 33977 ft 461 kts 336°
2026-05-06 08:37 -0.88976 -55.18814 33978 ft 462 kts 337°
2026-05-06 08:37 -0.83132 -55.21483 33977 ft 462 kts 337°
2026-05-06 08:38 -0.77286 -55.24154 33977 ft 462 kts 337°
2026-05-06 08:38 -0.71440 -55.26825 33976 ft 462 kts 337°
2026-05-06 08:39 -0.65593 -55.29496 33976 ft 462 kts 336°
2026-05-06 08:39 -0.59742 -55.32169 33976 ft 463 kts 337°
2026-05-06 08:40 -0.53870 -55.34851 33975 ft 463 kts 337°
2026-05-06 08:40 -0.48009 -55.37529 33975 ft 463 kts 337°
2026-05-06 08:41 -0.42154 -55.40203 33975 ft 463 kts 337°
2026-05-06 08:41 -0.36280 -55.42886 33974 ft 463 kts 336°
2026-05-06 08:42 -0.30447 -55.45551 33974 ft 464 kts 337°
2026-05-06 08:42 -0.24575 -55.48233 33974 ft 464 kts 337°
2026-05-06 08:43 -0.18700 -55.50916 33974 ft 464 kts 337°
2026-05-06 08:43 -0.12817 -55.53603 33974 ft 464 kts 337°
2026-05-06 08:44 -0.06928 -55.56293 33974 ft 465 kts 337°
2026-05-06 08:44 -0.01052 -55.58977 33974 ft 464 kts 337°
2026-05-06 08:45 0.03838 -55.61211 33977 ft 466 kts 337°
2026-05-06 08:45 0.09736 -55.63904 33982 ft 466 kts 337°
2026-05-06 08:46 0.15629 -55.66596 33982 ft 466 kts 337°
2026-05-06 08:46 0.21528 -55.69291 33978 ft 466 kts 337°
2026-05-06 08:47 0.27421 -55.71982 33978 ft 466 kts 336°
2026-05-06 08:47 0.33323 -55.74678 33979 ft 466 kts 336°
2026-05-06 08:48 0.39219 -55.77371 33979 ft 466 kts 336°
2026-05-06 08:48 0.45084 -55.80050 33979 ft 466 kts 336°
2026-05-06 08:49 0.50989 -55.82747 33979 ft 466 kts 336°
2026-05-06 08:49 0.56895 -55.85445 33980 ft 467 kts 336°
2026-05-06 08:50 0.62798 -55.88141 33980 ft 467 kts 336°
2026-05-06 08:50 0.68713 -55.90843 33980 ft 467 kts 336°
2026-05-06 08:51 0.74627 -55.93545 33981 ft 467 kts 336°
2026-05-06 08:51 0.80549 -55.96250 33981 ft 468 kts 336°
2026-05-06 08:52 0.86426 -55.98935 33981 ft 469 kts 336°
2026-05-06 08:52 0.92370 -56.01650 33992 ft 468 kts 336°
2026-05-06 08:53 0.98299 -56.04358 33998 ft 469 kts 336°
2026-05-06 08:53 1.04239 -56.07072 33999 ft 469 kts 336°
2026-05-06 08:54 1.10182 -56.09787 33999 ft 469 kts 336°
2026-05-06 08:54 1.16128 -56.12503 33999 ft 470 kts 336°
2026-05-06 08:55 1.22041 -56.15204 33999 ft 470 kts 336°
2026-05-06 08:55 1.27992 -56.17923 33999 ft 470 kts 336°
2026-05-06 08:56 1.33953 -56.20646 34000 ft 471 kts 336°
2026-05-06 08:56 1.39911 -56.23369 34000 ft 471 kts 336°
2026-05-06 08:57 1.45884 -56.26100 34000 ft 471 kts 336°
2026-05-06 08:57 1.51848 -56.28826 34000 ft 471 kts 336°
2026-05-06 08:58 1.57813 -56.31553 34000 ft 472 kts 336°
2026-05-06 08:58 1.63780 -56.34280 34000 ft 472 kts 336°
2026-05-06 08:59 1.69747 -56.37008 34000 ft 472 kts 336°
2026-05-06 08:59 1.75718 -56.39738 34000 ft 472 kts 336°
2026-05-06 09:00 1.81648 -56.42449 34000 ft 472 kts 336°
2026-05-06 09:00 1.87611 -56.45176 34001 ft 472 kts 336°
2026-05-06 09:01 1.93580 -56.47906 34001 ft 472 kts 336°
2026-05-06 09:01 1.99460 -56.50819 34001 ft 472 kts 333°
2026-05-06 09:02 2.05279 -56.53864 34001 ft 472 kts 332°
2026-05-06 09:02 2.11098 -56.56909 34001 ft 472 kts 332°
2026-05-06 09:03 2.16920 -56.59951 34000 ft 472 kts 332°
2026-05-06 09:03 2.22745 -56.62994 34001 ft 472 kts 332°
2026-05-06 09:04 2.28567 -56.66035 34001 ft 472 kts 332°
2026-05-06 09:04 2.34376 -56.69069 34001 ft 471 kts 332°
2026-05-06 09:05 2.40189 -56.72106 34001 ft 471 kts 332°
2026-05-06 09:05 2.45998 -56.75140 34001 ft 471 kts 332°
2026-05-06 09:06 2.51776 -56.78159 34002 ft 471 kts 332°
2026-05-06 09:06 2.57589 -56.81191 34005 ft 472 kts 332°
2026-05-06 09:07 2.63403 -56.84229 34005 ft 471 kts 332°
2026-05-06 09:07 2.69214 -56.87267 34005 ft 471 kts 332°
2026-05-06 09:08 2.75029 -56.90307 34005 ft 471 kts 332°
2026-05-06 09:08 2.80833 -56.93340 34005 ft 471 kts 332°
2026-05-06 09:09 2.86652 -56.96383 34001 ft 471 kts 332°
2026-05-06 09:09 2.92419 -56.99397 34001 ft 471 kts 332°
2026-05-06 09:10 2.98230 -57.02435 34000 ft 471 kts 332°
2026-05-06 09:10 3.04033 -57.05470 34000 ft 470 kts 332°
2026-05-06 09:11 3.09828 -57.08500 34000 ft 470 kts 332°
2026-05-06 09:11 3.15618 -57.11528 34000 ft 470 kts 332°
2026-05-06 09:12 3.21413 -57.14559 34000 ft 470 kts 332°
2026-05-06 09:12 3.27208 -57.17591 34000 ft 470 kts 332°
2026-05-06 09:13 3.33002 -57.20622 34000 ft 470 kts 332°
2026-05-06 09:13 3.38797 -57.23655 34000 ft 470 kts 332°
2026-05-06 09:14 3.44556 -57.26669 34000 ft 470 kts 332°
2026-05-06 09:14 3.50355 -57.29704 34000 ft 470 kts 332°
2026-05-06 09:15 3.56146 -57.32736 34000 ft 470 kts 332°
2026-05-06 09:15 3.61942 -57.35770 34000 ft 470 kts 332°
2026-05-06 09:16 3.67733 -57.38803 34000 ft 470 kts 332°
2026-05-06 09:16 3.73523 -57.41835 34000 ft 469 kts 332°
2026-05-06 09:17 3.79278 -57.44849 34000 ft 469 kts 332°
2026-05-06 09:17 3.85066 -57.47881 34000 ft 469 kts 332°
2026-05-06 09:18 3.90849 -57.50912 34000 ft 469 kts 332°
2026-05-06 09:18 3.96646 -57.53949 33999 ft 469 kts 332°
2026-05-06 09:19 4.02432 -57.56981 34000 ft 468 kts 332°
2026-05-06 09:19 4.08206 -57.60008 33999 ft 469 kts 332°
2026-05-06 09:20 4.13990 -57.63041 33999 ft 469 kts 332°
2026-05-06 09:20 4.19773 -57.66073 33999 ft 469 kts 332°
2026-05-06 09:21 4.25545 -57.69100 33999 ft 469 kts 332°
2026-05-06 09:21 4.31325 -57.72132 34011 ft 469 kts 332°
2026-05-06 09:22 4.37100 -57.75162 34012 ft 467 kts 332°
2026-05-06 09:22 4.42865 -57.78187 34012 ft 468 kts 332°
2026-05-06 09:23 4.48629 -57.81212 34012 ft 468 kts 332°
2026-05-06 09:23 4.54359 -57.84220 34013 ft 468 kts 331°
2026-05-06 09:24 4.60115 -57.87258 34013 ft 467 kts 331°
2026-05-06 09:24 4.65847 -57.90336 34013 ft 467 kts 331°
2026-05-06 09:25 4.71576 -57.93414 34014 ft 467 kts 331°
2026-05-06 09:25 4.77310 -57.96493 34014 ft 467 kts 330°
2026-05-06 09:26 4.83037 -57.99570 34015 ft 466 kts 330°
2026-05-06 09:26 4.88749 -58.02637 34015 ft 466 kts 330°
2026-05-06 09:27 4.94463 -58.05707 34015 ft 465 kts 330°
2026-05-06 09:27 5.00127 -58.08751 34015 ft 464 kts 330°
2026-05-06 09:28 5.05822 -58.11811 34016 ft 464 kts 330°
2026-05-06 09:28 5.11515 -58.14870 34016 ft 464 kts 330°
2026-05-06 09:29 5.17201 -58.17927 34017 ft 463 kts 330°
2026-05-06 09:29 5.22884 -58.20982 34017 ft 463 kts 330°
2026-05-06 09:30 5.28562 -58.24035 34017 ft 463 kts 330°
2026-05-06 09:30 5.34203 -58.27069 34021 ft 462 kts 330°
2026-05-06 09:31 5.39873 -58.30118 34022 ft 462 kts 330°
2026-05-06 09:31 5.45546 -58.33171 34022 ft 462 kts 330°
2026-05-06 09:32 5.51207 -58.36217 34021 ft 462 kts 330°
2026-05-06 09:32 5.56869 -58.39264 34020 ft 461 kts 330°
2026-05-06 09:32 5.59815 -58.40534 34016 ft 464 kts 343°
2026-05-06 09:33 5.63008 -58.40992 34019 ft 466 kts 359°
2026-05-06 09:33 5.66227 -58.40582 34020 ft 468 kts 14°
2026-05-06 09:33 5.69232 -58.39330 34021 ft 468 kts 30°
2026-05-06 09:33 5.71794 -58.37340 34023 ft 467 kts 45°
2026-05-06 09:34 5.74022 -58.34963 34025 ft 467 kts 48°
2026-05-06 09:34 5.77696 -58.30987 34021 ft 467 kts 47°
2026-05-06 09:35 5.82214 -58.26276 34021 ft 467 kts 46°
2026-05-06 09:35 5.86805 -58.21653 34021 ft 468 kts 45°
2026-05-06 09:36 5.91457 -58.17090 34021 ft 468 kts 44°
2026-05-06 09:36 5.96153 -58.12576 34021 ft 468 kts 44°
2026-05-06 09:37 6.00892 -58.08089 34021 ft 468 kts 43°
2026-05-06 09:37 6.05652 -58.03632 34021 ft 468 kts 43°
2026-05-06 09:38 6.10432 -57.99196 34021 ft 468 kts 43°
2026-05-06 09:38 6.15228 -57.94773 34021 ft 468 kts 43°
2026-05-06 09:39 6.20039 -57.90358 34021 ft 468 kts 43°
2026-05-06 09:39 6.24850 -57.85959 34021 ft 468 kts 43°
2026-05-06 09:40 6.29671 -57.81561 34021 ft 468 kts 43°
2026-05-06 09:40 6.32282 -57.79619 34016 ft 468 kts 28°
2026-05-06 09:40 6.38524 -57.78089 34021 ft 467 kts 357°
2026-05-06 09:41 6.41674 -57.78599 34021 ft 464 kts 341°
2026-05-06 09:41 6.44594 -57.79933 34021 ft 460 kts 326°
2026-05-06 09:41 6.47028 -57.81985 34022 ft 456 kts 310°
2026-05-06 09:41 6.48812 -57.84595 34026 ft 452 kts 296°
2026-05-06 09:42 6.51735 -57.90198 34022 ft 452 kts 297°
2026-05-06 09:42 6.54942 -57.95653 34022 ft 453 kts 300°
2026-05-06 09:43 6.58102 -58.00500 34022 ft 454 kts 302°
2026-05-06 09:43 6.61939 -58.05576 34022 ft 454 kts 307°
2026-05-06 09:44 6.65127 -58.10964 34020 ft 448 kts 283°
2026-05-06 09:44 6.65542 -58.14048 34022 ft 444 kts 267°
2026-05-06 09:44 6.65084 -58.17097 34022 ft 441 kts 251°
2026-05-06 09:45 6.63792 -58.19874 34023 ft 438 kts 235°
2026-05-06 09:45 6.61778 -58.22151 34023 ft 437 kts 219°
2026-05-06 09:45 6.59222 -58.23800 34027 ft 437 kts 208°
2026-05-06 09:45 6.56556 -58.25264 34023 ft 437 kts 210°
2026-05-06 09:46 6.51183 -58.28096 34021 ft 437 kts 200°
2026-05-06 09:46 6.48236 -58.28894 33829 ft 437 kts 191°
2026-05-06 09:46 6.45242 -58.29158 33555 ft 429 kts 180°
2026-05-06 09:47 6.42314 -58.28787 32838 ft 433 kts 167°
2026-05-06 09:47 6.39423 -58.27755 32054 ft 438 kts 156°
2026-05-06 09:47 6.36797 -58.26265 31290 ft 442 kts 148°
2026-05-06 09:47 6.34331 -58.24362 30501 ft 438 kts 140°
2026-05-06 09:48 6.32283 -58.22185 29734 ft 432 kts 129°
2026-05-06 09:48 6.30727 -58.19625 28956 ft 428 kts 116°
2026-05-06 09:48 6.29852 -58.16775 28177 ft 426 kts 102°
2026-05-06 09:48 6.29767 -58.13818 27402 ft 425 kts 86°
2026-05-06 09:49 6.30502 -58.10953 26624 ft 424 kts 69°
2026-05-06 09:49 6.32015 -58.08425 25847 ft 422 kts 52°
2026-05-06 09:49 6.34166 -58.06451 25072 ft 420 kts 35°
2026-05-06 09:49 6.36778 -58.05182 24295 ft 416 kts 18°
2026-05-06 09:50 6.39608 -58.04731 23520 ft 411 kts
2026-05-06 09:50 6.42413 -58.05127 22744 ft 406 kts 343°
2026-05-06 09:50 6.44939 -58.06324 21970 ft 401 kts 325°
2026-05-06 09:50 6.46974 -58.08216 21193 ft 397 kts 308°
2026-05-06 09:51 6.48320 -58.10614 20416 ft 393 kts 290°
2026-05-06 09:51 6.48862 -58.13278 19641 ft 389 kts 272°
2026-05-06 09:51 6.48559 -58.15961 18865 ft 386 kts 254°
2026-05-06 09:51 6.47445 -58.18402 18088 ft 384 kts 236°
2026-05-06 09:52 6.45639 -58.20358 17310 ft 381 kts 217°
2026-05-06 09:52 6.43344 -58.21641 16535 ft 378 kts 199°
2026-05-06 09:52 6.40781 -58.22143 15758 ft 373 kts 180°
2026-05-06 09:52 6.38233 -58.21819 14977 ft 368 kts 161°
2026-05-06 09:53 6.35959 -58.20722 14202 ft 361 kts 142°
2026-05-06 09:53 6.34204 -58.18986 13429 ft 353 kts 123°
2026-05-06 09:53 6.32929 -58.16900 12659 ft 348 kts 120°
2026-05-06 09:53 6.31651 -58.14848 11900 ft 343 kts 120°
2026-05-06 09:54 6.30378 -58.12844 11222 ft 336 kts 120°
2026-05-06 09:54 6.29088 -58.10914 10544 ft 330 kts 123°
2026-05-06 09:54 6.27748 -58.09082 9969 ft 320 kts 124°
2026-05-06 09:54 6.26437 -58.07320 9467 ft 309 kts 124°
2026-05-06 09:55 6.25169 -58.05619 8966 ft 299 kts 124°
2026-05-06 09:55 6.23944 -58.03974 8465 ft 290 kts 124°
2026-05-06 09:55 6.22753 -58.02382 7964 ft 280 kts 124°
2026-05-06 09:55 6.21595 -58.00840 7461 ft 272 kts 124°
2026-05-06 09:56 6.20464 -57.99342 6921 ft 269 kts 124°
2026-05-06 09:56 6.19351 -57.97876 6305 ft 267 kts 124°
2026-05-06 09:56 6.18226 -57.96398 5678 ft 264 kts 124°
2026-05-06 09:56 6.17114 -57.94942 5147 ft 262 kts 124°
2026-05-06 09:57 6.16008 -57.93493 4698 ft 261 kts 124°
2026-05-06 09:57 6.14926 -57.92038 4257 ft 258 kts 118°
2026-05-06 09:57 6.14390 -57.90361 4058 ft 251 kts 92°
2026-05-06 09:57 6.14664 -57.88651 4014 ft 249 kts 68°
2026-05-06 09:58 6.15666 -57.87236 4005 ft 252 kts 43°
2026-05-06 09:58 6.17156 -57.86291 4009 ft 254 kts 31°
2026-05-06 09:58 6.18715 -57.85448 4000 ft 255 kts 30°
2026-05-06 09:58 6.20286 -57.84629 4000 ft 254 kts 29°
2026-05-06 09:59 6.21864 -57.83822 4001 ft 255 kts 29°
2026-05-06 09:59 6.23447 -57.83024 3998 ft 255 kts 28°
2026-05-06 09:59 6.25036 -57.82230 4000 ft 255 kts 28°
2026-05-06 09:59 6.26620 -57.81441 3998 ft 254 kts 28°
2026-05-06 10:00 6.28212 -57.80652 3999 ft 255 kts 28°
2026-05-06 10:00 6.29800 -57.79867 4001 ft 255 kts 28°
2026-05-06 10:00 6.31390 -57.79081 3999 ft 255 kts 28°
2026-05-06 10:00 6.33016 -57.78364 3991 ft 258 kts 18°
2026-05-06 10:01 6.34816 -57.78304 3998 ft 265 kts 353°
2026-05-06 10:01 6.36516 -57.79043 3998 ft 272 kts 328°
2026-05-06 10:01 6.37792 -57.80459 3999 ft 278 kts 303°
2026-05-06 10:01 6.38623 -57.82219 4006 ft 280 kts 298°
2026-05-06 10:02 6.39553 -57.83934 4001 ft 278 kts 304°
2026-05-06 10:02 6.40623 -57.85553 4001 ft 277 kts 308°
2026-05-06 10:02 6.41762 -57.87080 4000 ft 276 kts 311°
2026-05-06 10:02 6.42968 -57.88581 3998 ft 276 kts 313°
2026-05-06 10:03 6.44223 -57.90069 4001 ft 276 kts 314°
2026-05-06 10:03 6.45483 -57.91521 4001 ft 275 kts 314°
2026-05-06 10:03 6.46739 -57.92944 4000 ft 275 kts 315°
2026-05-06 10:03 6.48034 -57.94393 4001 ft 275 kts 315°
2026-05-06 10:04 6.49304 -57.95806 4001 ft 276 kts 315°
2026-05-06 10:04 6.50388 -57.97011 4000 ft 275 kts 315°
2026-05-06 10:04 6.51677 -57.98437 4001 ft 275 kts 315°
2026-05-06 10:04 6.52964 -57.99856 3999 ft 275 kts 315°
2026-05-06 10:05 6.54250 -58.01272 3998 ft 269 kts 315°
2026-05-06 10:05 6.55471 -58.02618 3993 ft 253 kts 315°
2026-05-06 10:05 6.56624 -58.03888 3972 ft 238 kts 316°
2026-05-06 10:05 6.57763 -58.05066 3723 ft 232 kts 315°
2026-05-06 10:06 6.58885 -58.06201 3496 ft 224 kts 319°
2026-05-06 10:06 6.59982 -58.07286 3244 ft 220 kts 319°
2026-05-06 10:06 6.61067 -58.08359 3061 ft 217 kts 319°
2026-05-06 10:06 6.62131 -58.09413 3015 ft 218 kts 319°
2026-05-06 10:07 6.62978 -58.10670 2987 ft 217 kts 292°
2026-05-06 10:07 6.63071 -58.12145 2938 ft 210 kts 262°
2026-05-06 10:07 6.62445 -58.13415 2698 ft 205 kts 229°
2026-05-06 10:07 6.61401 -58.14313 2467 ft 186 kts 217°
2026-05-06 10:08 6.60455 -58.15110 2195 ft 170 kts 218°
2026-05-06 10:08 6.59602 -58.15867 1952 ft 159 kts 220°
2026-05-06 10:08 6.58802 -58.16602 1808 ft 154 kts 221°
2026-05-06 10:08 6.58017 -58.17343 1815 ft 155 kts 221°
2026-05-06 10:09 6.57236 -58.18092 1782 ft 156 kts 221°
2026-05-06 10:09 6.56454 -58.18850 1606 ft 154 kts 223°
2026-05-06 10:09 6.55691 -58.19602 1402 ft 152 kts 223°
2026-05-06 10:09 6.54947 -58.20337 1209 ft 149 kts 223°
2026-05-06 10:10 6.54214 -58.21063 1020 ft 147 kts 224°
2026-05-06 10:10 6.53492 -58.21779 845 ft 145 kts 224°
2026-05-06 10:10 6.52776 -58.22491 672 ft 145 kts 224°
2026-05-06 10:10 6.52062 -58.23204 493 ft 144 kts 225°
2026-05-06 10:11 6.51356 -58.23917 304 ft 144 kts 225°
2026-05-06 10:11 6.50648 -58.24624 135 ft 143 kts 225°
2026-05-06 10:11 6.49999 -58.25273 111 ft 109 kts 225°
2026-05-06 10:11 6.49587 -58.25683 111 ft 59 kts 225°
2026-05-06 10:12 6.49397 -58.25873 111 ft 31 kts 225°
2026-05-06 10:12 6.49314 -58.25978 111 ft 14 kts 281°
2026-05-06 10:12 6.49379 -58.26022 111 ft 11 kts 348°
2026-05-06 10:12 6.49442 -58.25987 111 ft 11 kts 45°
2026-05-06 10:13 6.49492 -58.25936 111 ft 10 kts 45°
2026-05-06 10:13 6.49539 -58.25888 111 ft 9 kts 45°
2026-05-06 10:13 6.49582 -58.25843 111 ft 9 kts 45°
2026-05-06 10:13 6.49622 -58.25804 111 ft 8 kts 44°
2026-05-06 10:14 6.49660 -58.25767 111 ft 7 kts 44°
2026-05-06 10:14 6.49711 -58.25716 111 ft 13 kts 45°
2026-05-06 10:14 6.49781 -58.25643 111 ft 14 kts 45°
2026-05-06 10:14 6.49852 -58.25572 111 ft 14 kts 45°
2026-05-06 10:15 6.49920 -58.25504 111 ft 14 kts 45°
2026-05-06 10:15 6.49986 -58.25437 111 ft 13 kts 45°
2026-05-06 10:15 6.50050 -58.25372 111 ft 13 kts 45°
2026-05-06 10:15 6.50112 -58.25309 111 ft 12 kts 45°
2026-05-06 10:16 6.50175 -58.25251 111 ft 12 kts 17°
2026-05-06 10:16 6.50219 -58.25274 111 ft 4 kts 317°
2026-05-06 10:16 6.50240 -58.25270 111 ft 3 kts 36°
2026-05-06 10:16 6.50260 -58.25250 111 ft 7 kts 45°
2026-05-06 10:17 6.50305 -58.25204 111 ft 9 kts 44°
2026-05-06 10:17 6.50338 -58.25209 111 ft 3 kts 324°
2026-05-06 10:17 6.50346 -58.25216 111 ft 0 kts 313°
2026-05-06 10:17 6.50348 -58.25219 111 ft 0 kts 312°
2026-05-06 10:18 6.50349 -58.25219 111 ft 0 kts 313°